Погода Фурманово

Погода Фурманово : погода сейчас, прогноз погоды и архив. Всё, что Вы хотите узнать о погоде Фурманово!

Поиск расширенной информации на нашем сайте:

Другие новости

Новости СМИ2

Главная страница сайта

Новости сайта

03.07.2017

Напоминаем, что на нашем специализированном сайте Метеоцентр.Азия вы можете получить высокодетализированные автоматические прогнозы погоды по пунктам России, СНГ и мира в авиационном формате (включающие направление и скорость ветра, видимость, явления погоды, количество и форму облачности, нижнюю и верхнюю границу облачности).


Погода Фурманово - сегодня

Время (UTC), дата Ветер
(°,м/с) 
Видим.   Явления Облачность Т
(°С)
Тd
(°С)
f(%) Тe
(°С)
Pmin
(гПа)
dP
(гПа)
Po
(мм)
O2
(г/м3)
Тmin Tmax R s Состояние
почвы
12 17.07.18 250 (З) 20000 м    6/6 600 м 
[Cu med, cong]
+31 +12.4 32 +35  1000.9  -0.3  750  269           
15 17.07.18 250 (З) 20000 м    6/5 600 м кучево-дожд., верхняя 
[Cb calv|Ci fib]
+30.6 +11.1 30 +33  1001.2  0.3  750  270    +32.2       
18 17.07.18 180 (Ю) н/о    9/5 600 м кучево-дожд., средняя, верхняя 
[Cb cap|Ac lent|Ci fib]
+25.9 +13.1 45 +31  1002.3  1.1  751  274    +32.2       
21 17.07.18 тихо ()   н/о    3/0 средняя 
[Ac lent]
+21.7 +15.9 70 +32  1002.8  0.5  751  277           
00 18.07.18 140 (ЮВ) н/о    4/0 средняя, верхняя 
[Ac As|Ci fib]
+19.4 +14.8 75 +29  1002.7  0.1  751  280           
03 18.07.18 230 (ЮЗ) 20000 м    4/0 верхняя 
[Cs]
+22.2 +15.7 67 +32  1003.5  0.8  752  277           
06 18.07.18 230 (ЮЗ) 20000 м    5/0 средняя, верхняя 
[Ac cast|Cs]
+28 +14.8 45 +36  1004.4  0.9  753  272  +18.6         
09 18.07.18 250 (З) 20000 м    6/5 600 м кучево-дожд., верхняя 
[Cb cap|Ci ing]
+30.4 +12.9 34 +36  1003.8  -0.6  752  270           
12 18.07.18 250 (З) 20000 м    6/6 600 м кучево-дожд. 
[Cb cap]
+32.6 +12 28 +36  1003  -0.8  752  268           
15 18.07.18 250 (З) 20000 м    4/4 600 м кучево-дожд. 
[Cb cap]
+32 +11.3 28 +35  1003.3  0.3  752  269    +33.1       
18 18.07.18 тихо ()   н/о    5/4 600 м кучево-дожд., средняя 
[Cb cap|Ac lent]
+25.6 +12 43 +29  1004.7  1.4  753  275    +33.1       
21 18.07.18 тихо ()   н/о    3/0 средняя 
[Ac lent]
+22 +12.3 54 +26  1005.1  0.4  753  279           
00 19.07.18 180 (Ю) н/о    6/0 средняя 
[Ac trans]
+21 +12.5 58 +26  1005.4  0.3  753  279           
03 19.07.18 230 (ЮЗ) 20000 м    8/3 600 м кучево-дожд., средняя 
[Cb cap|Ac cast]
+24.1 +13.1 50 +30  1006.4  754  277           
06 19.07.18 140 (ЮВ) 20000 м    8/4 600 м кучево-дожд., средняя, верхняя 
[Cb cap|Ac lent|Cc]
+31.7 +13.5 33 +38  1006.6  0.2  754  270  +19.4         
09 19.07.18 180 (Ю) 20000 м    8/8 600 м кучево-дожд. 
[Cb cap]
+35.6 +11.3 23 +38  1005.6  -1  754  267           
12 19.07.18 050 (СВ) 20000 м  гроза без осадков  6/5 600 м кучево-дожд., средняя 
[Cb cap|Ac cuf]
+34 +12 26 +38  1004.7  -0.9  753  268           
15 19.07.18 140 (ЮВ) 20000 м  гроза без осадков  9/8 600 м кучево-дожд., средняя 
[Cb cap|Ac cuf]
+31 +11 29 +33  1005.7  754  271    +35.9       
18 19.07.18 070 (В) н/о  зарница{гроза}  8/5 600 м кучево-дожд., средняя, верхняя 
[Cb cap|Ac trans|Ci fib]
+26.1 +14.8 50 +34  1005.5  -0.2  753  274    +35.9       
21 19.07.18 070 (В) н/о    9/6 600 м кучево-дожд., средняя, верхняя 
[Cb cap|Ac trans|Ci fib]
+24.8 +14.4 52 +32  1004.6  -0.9  753  275           
00 20.07.18 200 (Ю) н/о    9/4 600 м кучево-дожд., средняя, верхняя 
[Cb cap|Ac lent|Ci fib]
+23.7 +15.8 61 +34  1005  0.4  753  276           
03 20.07.18 360 (С) 20000 м    9/5 600 м кучево-дожд., средняя, верхняя 
[Cb cap|Ac lent|Cs]
+23.4 +16.9 67 +35  1004.3  -0.7  753  276           
06 20.07.18 тихо ()   20000 м    10/6 600 м кучево-дожд., средняя 
[Cb cap|As op]
+25 +17.1 62 +37  1004.9  0.6  753  274  +22.7         
09 20.07.18 тихо ()   4000 м  слаб. ливневой дождь  9/6 600 м кучево-дожд., средняя, верхняя 
[Cb cap|Ac cast|Cs]
+25 +19.8 73 +43  1004.7  -0.2  753  273           
12 20.07.18 тихо ()   20000 м  {ливн. осадки}  8/5 600 м кучево-дожд., средняя 
[Cb cap|Ac cast]
+29.3 +17.5 49 +43  1004  -0.7  752  270           
Время (UTC), дата Ветер
(°,м/с) 
Видим.   Явления Облачность Т
(°С)
Тd
(°С)
f(%) Тe
(°С)
Pmin
(гПа)
dP
(гПа)
Po
(мм)
O2
(г/м3)
Тmin Tmax R s Состояние
почвы

Для получения пояснительной информации подведите курсор к названию столбца.

ПОГОДА Фурманово - архив

Всё, что Вы хотите узнать о погоде Фурманово - удобно и подробно!

Выберите нужную дату (начиная с 1 января 2015* года) и нажмите кнопку "Найти".
Будут отображены архивные сводки погоды по пункту Фурманово, начиная с указанной даты.


Отображать данные в формате CSV (для использования в таблицах Excel)


Внимание! Наш архив погоды предназначен исключительно для личного некоммерческого использования в познавательных целях. Если Вам необходимы официальные справки о состоянии погоды (для производственных, юридических, коммерческих и т.п. целей), обращайтесь в органы Росгидромета.

*Примечание: данная дата относится к архиву по метеостанциям СССР (Россия, СНГ, Балтия).
Архив по метеостанциям Зарубежной Европы и Азии (кроме Китая) хранится 10 дней, по другим регионам земного шара (Китай, Африка, Америка, Австралия, Океания) - 1 день.

Фурманово - район местоположения метеостанции


Название, широта, долгота, высота метеостанции:
Фурманово 49.7°ш. 49.5°д. 10 м над ур. моря [Казахстан]

Дополнительная информация

В oтличие oт бoльшинства пoгoдных сайтoв мы публикуем пoдрoбную метеoинфoрмацию в детальнoм прoфессиoнальнoм фoрмате.

Характеристики температуры и влажнoсти вoздуха измеряются на высoте 2 м в тени вдали oт зданий и деревьев.
Скoрoсть ветра измеряется на высoте 10 м (на урoвне рoста челoвека скoрoсть ветра ниже в 1.5-2 раза). Если метеoстанция нахoдится в гoрoде или в лесу, тo скoрoсть ветра занижена на 2-4 м/с пo сравнению с oткрытым местoм. Скoрoсть ветра над акватoриями крупных рек и oзёр, а также на вершинах хoлмoв на 2-5 м/с выше, чем в oбычных услoвиях.
Атмoсфернoе давление в разных тoчках местнoсти мoжет значительнo oтличаться oт давления на метеoстанции, в зависимoсти oт услoвий рельефа (при пoдъёме на 10 м давление пoнижается примернo на 1 мм рт.ст.).